Temp
20 21 20 20 20 19 20 19 19 19 19 19 18 18 18 18 19 19 19 19 19 18 19 19 19 19 18 18 19 19 19 19 19 19 19 19 19 20 20 20 19 19 19
21 20 20 20 19 19 19 20 20 19 19 19 19 19 19 19 19 19 19 19 19 19 19 18 18 19 19 19 19 19 19 19 19 19 19 19 19 19 20 20 19 20 20
21 20 19 19 19 19 19 19 19 19 19 19 19 19 19 18 18 18 18 18 18 18 18 19 19 18 18 18 18 18 18 19 19 19 20 21 20 19 20 20 19 19 19
21 20 19 19 19 19 19 19 19 19 19 19 18 18 18 18 17 18 18 18 18 18 18 18 18 18 18 18 18 18 18 18 18 19 20 20 21 20 20 20 19 18 18
20 19 19 19 18 18 18 19 19 19 18 18 18 18 18 18 18 18 18 18 18 18 18 18 18 18 18 18 18 18 18 18 18 19 19 20 21 20 19 19 19 18 18
19 18 18 19 18 18 18 19 19 19 19 18 19 19 18 18 18 19 19 18 19 18 18 18 18 18 18 18 18 18 18 18 18 19 19 19 20 20 20 19 19 19 18
18 17 18 18 18 18 19 19 19 19 19 19 19 19 19 19 19 18 18 18 18 18 18 18 18 18 18 18 18 18 18 18 18 18 19 20 20 19 20 20 19 18 18
18 17 18 18 18 19 19 19 19 19 19 19 19 18 18 18 17 18 17 18 18 18 18 17 17 18 18 18 18 18 18 18 18 18 19 19 19 19 19 19 19 18 18
18 18 18 18 18 19 18 19 19 19 19 18 18 18 17 16 16 16 16 16 16 16 16 16 16 17 17 17 18 18 18 18 18 18 19 20 19 19 19 19 18 17 17
18 18 18 18 18 17 18 18 18 18 17 16 16 16 16 16 15 15 16 16 16 15 15 15 16 16 16 17 17 17 17 18 19 19 19 20 20 19 18 18 18 17 18
17 17 18 18 18 17 17 17 16 16 16 16 16 16 17 16 16 15 15 15 15 15 15 15 15 16 16 16 16 17 17 18 18 19 19 19 19 18 17 17 17 17 18
16 16 17 17 17 17 17 17 16 16 16 16 15 16 16 16 16 16 15 15 15 15 15 15 15 16 15 15 16 16 17 17 18 18 18 18 18 18 16 16 16 17 17
16 16 16 17 16 16 17 17 16 16 16 15 15 15 15 16 15 15 15 15 14 14 14 14 15 15 15 16 16 16 16 16 17 17 17 17 17 17 15 15 16 16 16
16 16 16 16 16 16 16 16 16 16 15 15 14 15 15 15 15 15 14 14 14 14 14 14 14 14 15 15 15 15 16 16 16 16 16 16 16 15 14 15 15 15 15
16 16 16 16 15 15 15 15 15 15 15 14 14 14 14 14 14 14 14 14 13 13 13 13 14 14 14 15 15 15 16 16 16 16 16 15 15 14 13 13 14 14 14
16 15 15 15 15 15 15 15 15 15 14 14 14 14 14 14 13 13 13 13 13 13 13 13 13 13 14 14 15 15 16 16 16 16 15 14 14 13 12 12 12 12 13
16 16 15 15 15 15 15 14 14 14 14 14 13 13 13 13 13 13 13 12 12 12 12 13 13 13 13 14 14 15 15 15 15 15 14 12 12 12 10 10 11 11 11
16 15 15 15 15 14 14 14 14 14 14 14 13 13 13 12 12 12 12 12 12 12 12 12 12 13 13 13 14 15 15 15 14 15 14 13 12 10 10 10 10 9 9
16 15 15 15 15 14 14 14 14 14 14 14 14 13 13 12 12 12 12 12 12 12 12 12 12 12 12 12 13 14 14 14 13 13 13 12 11 10 9 9 9 9 8
16 16 15 15 15 15 14 14 14 14 14 13 13 13 13 12 12 12 12 11 11 11 11 11 11 12 12 12 13 13 14 13 13 12 11 11 11 10 9 9 8 8 8
16 16 15 15 15 15 14 14 14 14 14 14 13 13 12 12 12 12 12 11 11 11 11 11 11 11 12 11 12 12 13 13 12 12 12 12 11 11 10 8 8 7 7
16 16 15 15 15 14 15 15 15 14 14 14 13 13 12 12 12 12 11 11 11 11 11 10 10 10 11 11 11 11 9 12 12 12 12 11 11 10 9 8 7 7 6
16 15 15 15 15 14 14 14 14 14 14 14 13 13 13 12 12 12 11 11 11 10 10 10 10 9 9 10 11 10 8 9 10 12 12 11 11 10 9 8 7 6 6
16 16 15 15 15 14 14 13 13 14 14 14 14 13 13 12 12 11 11 11 10 10 10 10 9 9 9 9 10 10 10 10 8 8 11 11 11 10 9 8 7 6 5
16 16 15 15 14 14 13 13 13 13 14 14 13 13 13 12 12 12 11 10 10 10 10 9 9 9 9 9 9 9 10 10 10 8 7 10 11 10 9 8 7 6 5
16 15 15 14 14 14 13 13 13 13 13 13 13 13 13 13 13 12 12 11 10 10 9 9 9 9 9 9 9 9 9 9 9 8 6 7 8 9 9 8 7 6 5
Height
814 816 819 821 822 823 824 824 826 827 827 826 827 827 827 827 827 827 826 826 826 826 826 825 826 826 826 825 824 824 823 823 822 822 821 821 821 820 820 821 820 820 820
812 816 820 822 824 825 825 825 826 827 828 828 828 828 828 827 827 827 827 827 827 827 827 827 827 826 826 826 825 824 824 823 822 822 822 821 821 821 820 821 821 820 820
812 817 820 823 824 826 827 827 828 829 829 829 829 828 828 828 827 827 827 827 827 827 827 827 827 826 826 826 825 825 824 823 822 822 821 820 820 821 821 820 820 820 820
814 818 821 823 825 826 827 828 828 829 830 830 829 829 829 828 828 828 827 827 827 827 827 826 826 825 825 825 825 824 824 823 822 821 821 820 821 821 820 820 821 821 820
815 818 821 823 825 827 828 829 829 829 830 830 830 829 829 829 829 828 828 828 827 827 826 826 825 824 824 823 823 823 823 822 822 821 820 820 820 820 820 819 819 820 819
817 819 822 823 826 827 829 829 830 830 830 830 830 830 830 829 829 828 828 828 827 826 825 824 824 823 822 822 821 821 821 820 820 820 819 820 819 818 818 818 818 818 818
820 821 823 825 826 827 829 829 830 830 831 831 831 830 830 830 829 828 828 827 826 825 825 823 822 822 821 820 820 819 819 818 818 818 818 817 818 818 817 817 817 817 817
821 823 823 825 827 828 829 830 830 831 831 831 831 831 830 829 829 828 827 826 825 824 824 822 821 820 819 818 817 817 817 816 816 816 816 816 816 815 815 815 815 815 815
823 825 825 827 829 829 830 830 830 831 831 831 831 831 831 830 829 829 828 827 826 824 824 822 820 819 817 816 816 815 815 814 814 814 814 813 813 813 813 812 812 813 813
824 826 827 828 830 831 831 832 832 832 832 833 833 833 832 831 830 829 830 828 827 826 825 823 822 820 818 817 816 814 813 812 812 812 811 811 811 811 811 811 810 810 810
825 827 828 829 831 833 832 833 834 834 834 834 834 835 833 833 832 831 830 828 828 827 825 824 823 821 819 817 816 815 813 812 811 812 810 809 810 809 808 809 809 808 807
825 827 827 829 831 834 834 835 836 835 836 836 835 835 834 834 833 832 831 830 828 827 826 824 823 822 819 818 817 815 814 812 811 811 809 808 808 808 808 808 808 807 807
824 826 827 829 832 834 834 836 836 836 836 836 836 835 835 835 834 833 832 830 829 827 826 825 823 822 820 818 817 815 814 813 811 811 810 808 807 807 808 808 808 807 806
825 825 826 829 832 833 835 836 836 835 836 836 836 835 835 835 834 834 832 831 830 827 826 825 824 822 820 818 817 816 814 813 812 811 809 809 808 808 809 809 808 807 806
824 824 826 829 831 833 834 835 837 836 836 836 836 835 835 835 834 834 834 832 830 829 827 825 824 822 820 818 816 815 814 814 813 812 810 809 809 809 809 809 808 807 806
822 823 826 829 831 833 834 835 836 836 837 837 836 836 835 835 835 835 834 833 830 829 828 827 825 823 820 818 816 814 814 813 812 812 810 810 811 810 810 810 809 808 807
820 823 826 828 831 833 834 835 835 836 837 837 837 837 836 836 836 835 834 832 830 830 829 827 826 824 820 819 816 814 813 813 813 812 812 812 812 812 811 810 809 808 807
819 824 826 827 831 833 834 835 836 836 837 837 838 838 838 837 836 835 833 832 830 830 829 828 826 824 821 819 816 815 814 813 812 814 814 814 814 814 813 811 810 809 808
819 823 826 827 830 832 833 834 835 835 836 837 838 838 837 837 836 835 834 832 831 830 830 828 826 824 822 820 816 816 815 814 814 814 816 816 815 815 815 814 812 811 810
819 822 826 827 830 832 833 834 834 834 835 837 837 837 836 836 835 835 834 833 832 831 830 828 826 823 822 820 817 815 815 814 814 814 816 816 816 816 815 814 813 812 811
819 823 825 827 828 830 832 833 833 834 834 835 836 836 836 834 834 834 834 833 832 831 831 828 826 824 822 821 818 814 814 815 815 814 814 815 815 815 814 813 813 812 811
818 822 825 826 827 829 831 832 832 833 833 834 835 834 832 832 833 833 832 832 832 831 829 828 826 825 823 822 821 818 817 817 816 815 814 814 813 813 812 812 811 811 810
817 820 822 824 826 828 830 830 831 832 833 834 833 831 830 831 832 831 831 830 830 829 828 828 827 826 824 823 823 823 822 822 818 815 814 813 812 811 810 810 810 810 810
815 818 821 823 825 827 828 829 830 832 833 832 831 830 830 830 830 829 829 829 828 828 827 826 826 825 825 824 823 823 822 822 822 819 813 812 812 810 809 808 809 809 808
812 816 819 822 824 826 826 828 830 831 831 830 829 829 829 828 827 826 826 826 825 825 825 824 823 823 822 823 824 822 821 820 819 818 816 812 811 810 808 807 806 807 807
809 813 816 819 822 825 825 827 828 829 828 827 828 828 827 826 825 824 823 822 822 822 822 821 821 820 819 820 820 819 819 819 817 818 817 813 812 808 808 806 805 805 805
Wind_Speed
18 18 14 12 12 11 10 10 9 8 9 9 9 9 10 9 9 10 9 8 8 7 9 5 7 8 8 8 8 8 7 6 6 5 4 3 4 5 6 6 8 4 4
20 18 15 14 11 10 10 10 9 8 8 8 8 8 8 8 8 8 8 8 7 7 7 7 6 7 7 8 9 9 8 7 7 6 6 5 5 3 6 6 5 5 4
23 17 14 13 12 11 10 9 9 8 7 8 8 8 8 9 9 8 7 6 7 7 8 7 7 7 8 8 8 9 9 8 8 8 7 5 7 9 6 8 6 5 5
19 18 14 13 12 11 11 10 9 7 6 6 6 7 7 8 8 8 7 6 6 7 7 8 9 9 10 9 9 10 10 10 10 9 8 7 8 5 8 9 6 6 6
25 19 17 16 14 12 10 9 7 6 5 4 5 5 6 6 7 7 8 8 8 9 9 9 10 9 9 9 11 10 10 11 11 11 6 5 8 8 9 9 7 6 9
18 19 16 15 13 10 9 7 6 5 4 4 4 5 6 7 8 9 9 9 9 10 10 10 10 11 11 11 11 10 11 11 12 11 11 13 11 9 12 12 11 9 8
18 17 15 13 11 9 7 5 4 4 4 5 6 7 7 8 9 10 9 10 11 12 12 13 13 13 13 13 13 13 13 12 12 12 10 11 11 10 12 13 11 10 9
16 14 14 11 8 7 5 4 4 5 6 6 7 7 8 9 9 10 11 11 12 12 12 13 14 14 15 15 15 15 14 14 13 12 13 15 16 11 13 14 11 10 10
16 12 12 11 7 5 5 5 5 5 6 7 9 9 10 13 14 15 13 13 13 14 13 14 14 14 15 14 14 15 16 15 15 15 14 14 15 14 11 11 10 10 11
15 14 13 11 8 4 7 6 7 9 10 11 14 13 13 13 13 14 14 15 14 16 16 19 18 17 17 15 15 14 16 15 14 13 15 12 15 13 12 10 12 13 12
15 13 12 11 8 3 6 8 9 11 12 13 12 11 10 8 12 8 15 17 17 18 18 19 19 18 16 16 15 15 16 17 17 14 10 6 10 9 8 10 13 14 13
13 11 11 11 9 6 6 6 6 8 7 5 6 7 8 8 11 12 14 14 15 16 15 16 14 14 15 15 15 14 15 14 13 11 13 9 9 12 13 11 12 12 12
14 12 10 10 9 5 6 6 4 4 5 5 8 8 8 8 9 10 10 13 14 14 15 15 15 16 15 15 14 13 13 12 11 13 11 12 14 15 11 11 11 11 10
15 13 11 9 7 7 6 5 3 4 6 5 6 8 8 7 9 10 11 12 13 15 15 16 16 16 14 13 13 13 13 11 10 11 12 13 13 12 11 9 9 9 10
15 13 11 9 7 7 6 7 5 5 4 4 6 8 8 8 9 9 10 11 12 14 15 16 16 16 15 14 13 12 11 10 8 8 8 7 9 6 12 12 12 12 12
16 14 12 10 7 8 6 6 6 4 4 4 5 7 7 7 8 9 9 11 13 15 15 14 16 15 15 15 14 12 10 9 8 7 6 7 8 11 8 10 12 12 13
15 13 12 10 7 6 6 6 3 5 3 4 5 6 7 8 7 8 9 11 13 13 14 14 15 15 14 15 12 12 10 8 7 5 10 14 15 16 13 16 16 16 15
17 13 11 9 8 6 4 5 3 4 2 2 2 3 5 7 8 7 8 10 11 12 13 14 14 15 14 15 11 10 10 10 12 4 5 8 9 10 11 14 16 16 15
14 13 11 9 7 5 3 3 3 2 3 1 2 2 5 6 7 6 8 10 10 11 11 12 13 13 15 16 10 9 6 6 8 8 6 7 9 10 12 14 16 17 17
13 12 10 9 9 6 5 2 1 1 2 3 1 3 3 2 7 6 6 7 9 8 10 11 12 11 12 16 11 10 2 1 2 4 6 7 11 12 11 11 9 9 13
14 13 12 11 10 9 5 3 4 3 3 2 3 6 4 5 6 5 6 7 8 7 9 10 12 12 11 16 10 10 4 4 2 2 5 5 5 7 10 11 11 10 10
16 15 13 11 10 10 7 7 5 4 2 5 7 8 6 6 8 7 8 7 7 8 6 9 10 12 7 12 9 8 3 2 3 6 2 2 2 3 5 7 10 10 9
16 16 15 13 13 10 9 8 4 2 2 5 5 5 7 9 10 10 9 9 8 8 7 8 9 8 9 8 9 4 3 2 7 4 5 3 3 2 1 4 5 11 12
17 16 16 15 14 12 9 7 4 5 5 3 5 6 9 12 12 11 12 11 10 9 8 7 6 7 6 8 6 5 3 5 1 4 3 11 2 4 2 2 5 7 10
17 17 17 16 14 12 10 8 7 7 6 6 6 8 10 12 13 14 13 13 12 11 10 9 9 6 5 6 7 6 7 7 11 7 4 4 9 7 4 3 4 4 8
16 17 18 16 15 13 10 9 9 7 6 7 8 10 12 14 14 15 16 14 13 12 13 12 10 10 8 8 9 7 8 5 5 3 2 3 8 8 4 6 4 6 7
Wind_Direction
126 133 130 129 126 118 112 104 96 87 78 70 60 54 50 49 46 46 46 47 42 33 20 16 28 23 17 15 14 11 9 3 359 357 357 8 16 9 19 32 46 40 19
126 133 132 127 123 119 113 104 93 83 72 64 56 48 42 36 31 31 31 29 24 15 15 18 5 360 355 354 355 358 357 351 345 337 328 304 297 303 336 345 356 353 5
125 129 133 128 123 116 107 97 89 84 75 69 63 57 54 51 46 38 26 17 9 3 356 348 337 340 332 331 333 334 336 337 338 333 329 335 308 260 309 323 328 342 347
119 129 128 124 119 115 113 112 103 89 77 64 55 47 46 43 40 33 23 15 3 355 353 352 342 327 318 315 316 316 317 320 322 325 332 343 334 262 300 327 319 323 322
121 130 127 129 126 117 116 108 97 87 76 59 51 45 33 22 15 8 4 358 352 345 340 335 327 327 329 318 306 303 302 304 307 315 324 328 292 287 292 310 302 293 318
118 122 129 127 124 120 113 105 96 85 68 50 29 20 12 3 359 357 350 344 339 332 327 323 322 319 315 312 309 310 298 296 294 303 307 304 279 289 282 299 292 292 312
111 118 124 125 127 123 118 107 82 57 38 21 14 9 4 358 353 350 340 336 332 327 325 323 317 312 309 308 307 304 300 300 292 292 290 293 294 272 272 296 295 290 288
122 123 123 122 119 118 111 87 59 35 23 17 13 11 11 7 360 358 351 351 344 340 336 333 326 318 311 305 301 300 301 302 296 287 286 286 290 280 283 290 289 290 288
118 108 107 102 91 96 90 67 47 39 30 31 31 32 39 33 24 18 12 13 8 8 359 356 352 347 342 330 320 310 303 298 295 291 283 279 279 286 275 283 300 286 285
120 120 110 95 80 36 78 67 61 58 51 53 47 48 39 34 12 355 9 15 14 15 12 12 10 11 10 8 352 349 344 317 299 295 292 283 277 279 283 304 306 303 290
120 123 120 114 111 96 56 58 52 58 50 42 35 33 37 19 2 9 7 11 12 13 7 8 6 8 6 3 356 355 347 345 334 325 346 296 285 301 322 333 316 314 308
129 127 130 125 122 118 93 56 62 55 63 58 46 42 30 19 11 14 10 4 7 7 8 2 356 1 353 359 356 352 351 343 339 342 332 335 326 307 336 340 332 331 329
141 136 130 128 125 129 128 106 88 88 78 27 29 48 34 29 18 19 8 8 5 358 4 360 359 357 356 354 349 353 351 350 348 344 349 348 350 347 350 337 330 333 343
151 140 129 126 131 128 113 102 97 86 44 37 29 40 52 27 18 25 12 6 5 4 0 359 357 352 355 356 352 351 351 351 351 347 349 350 356 354 16 8 8 5 2
149 142 137 136 133 121 117 106 95 78 77 38 29 34 41 27 21 19 15 3 4 5 5 1 359 352 356 355 353 352 351 348 358 1 346 354 357 15 35 26 26 22 23
153 151 144 142 142 129 128 131 125 111 61 47 27 42 26 34 28 11 10 7 9 8 6 2 1 357 357 356 351 356 359 352 11 12 20 11 12 18 22 24 26 21 21
155 154 155 148 133 132 132 119 90 90 72 50 33 23 26 17 31 12 15 2 14 7 8 10 5 1 4 0 357 5 7 15 26 54 56 41 28 10 30 37 34 33 31
157 158 155 152 147 139 145 125 119 119 94 67 41 11 13 10 14 14 14 3 16 12 8 6 0 358 4 357 355 9 28 47 46 40 12 20 26 45 18 20 22 26 28
162 165 167 153 141 143 145 150 162 136 122 337 58 341 349 356 356 12 4 1 12 12 2 2 358 359 357 351 354 356 45 67 59 45 19 5 30 35 32 32 20 18 28
163 172 170 154 158 171 185 185 122 231 153 231 213 269 326 318 334 350 351 353 360 -0 353 2 359 8 0 349 347 342 257 292 348 27 63 22 34 29 26 24 20 25 23
165 170 178 170 176 186 175 192 205 234 214 313 282 280 282 307 310 326 330 338 338 347 346 349 355 3 7 357 353 357 255 230 117 83 88 60 19 3 357 359 357 8 18
178 184 184 186 191 185 196 209 197 195 210 245 250 270 291 294 293 311 305 309 313 324 336 343 358 0 358 11 354 329 354 233 343 202 201 107 61 6 349 359 354 355 12
190 193 192 191 198 196 201 210 193 226 267 261 273 306 315 298 288 290 287 288 292 307 321 331 342 358 356 2 9 15 357 337 341 157 173 222 250 262 273 341 343 346 354
196 197 197 198 199 200 208 192 194 234 250 264 283 289 281 289 295 290 287 283 284 289 297 306 312 329 338 331 349 3 318 299 285 324 281 325 289 213 287 291 335 338 345
194 198 196 198 201 201 210 191 210 232 250 281 295 291 293 295 286 292 290 282 277 284 286 283 290 293 293 301 306 320 317 297 273 249 280 300 330 355 301 274 321 322 332
187 192 193 195 201 203 205 207 217 234 261 283 288 289 293 294 289 280 283 286 275 266 267 275 275 278 284 271 274 271 271 265 297 308 324 323 295 310 331 254 282 309 321